Location: Baix
(44.7118°N, 4.7648°E)
Time: 03:35:19
(UTC+00:00)

Cosmos 2333 - Pass Details

Date: 07 August 2020
Orbit: 830 x 866 km, 70.9° (Epoch: 27 September)

Event Time Altitude Azimuth Distance (km) Brightness Sun altitude
Rises 00:01:46 0° 332° (NNW) 3,459 8.2 -28.8°
Reaches altitude 10° 00:04:15 10° 331° (NNW) 2,517 7.3 -28.8°
Enters shadow 00:09:29 68° 290° (WNW) 929 4.3 -28.7°
